Location: Baumgartsau
(48.4586°N, 14.0864°E)
Time: 08:28:56
(UTC+00:00)

SL-4 R/B - Pass Details

Date: 09 April 2020
Orbit: 428 x 666 km, 51.6° (Epoch: 01 June)

Event Time Altitude Azimuth Distance (km) Brightness Sun altitude
Rises 19:03:08 0° 261° (W) 2,394 6.2 -12.7°
Reaches altitude 10° 19:05:15 10° 265° (W) 1,524 5.2 -13.0°
Maximum altitude 19:08:37 60° 346° (NNW) 499 2.0 -13.5°
Enters shadow 19:11:32 14° 66° (ENE) 1,351 3.7 -13.9°
